Location: Phoenix
(33.4480°N, 112.0730°W)
Time: 05:22:13
(UTC-07:00)

Cosmos 1470 Rocket - Visible Passes

Search period start: 05 May 2016 00:00
Search period end: 15 May 2016 00:00
Orbit: 605 x 633 km, 82.5° (Epoch: 05 May)

Date Brightness Start Highest point End Pass type
(mag) Time Alt. Az. Time Alt. Az. Time Alt. Az.
06 May 6.8 03:53:11 10° E 03:54:09 11° E 03:55:07 10° ENE visible
07 May 6.1 04:07:58 10° SE 04:11:19 21° E 04:14:41 10° NE visible
08 May 4.9 04:24:23 10° SSE 04:28:34 41° E 04:32:48 10° NNE visible
09 May 3.7 04:41:27 10° S 04:45:54 86° E 04:50:25 10° N visible
10 May 6.6 03:24:32 10° ESE 03:26:00 11° E 03:27:28 10° ENE visible
10 May 3.9 04:59:03 10° SSW 05:03:21 46° W 05:07:41 10° N visible
11 May 5.9 03:39:42 10° SE 03:43:10 23° E 03:46:40 10° NE visible
12 May 4.7 03:56:12 10° SSE 04:00:26 44° E 04:04:42 10° NNE visible
13 May 3.6 04:13:28 11° S 04:17:47 89° W 04:22:17 10° N visible
14 May 6.4 02:56:01 10° ESE 02:57:51 12° E 02:59:40 10° ENE visible
14 May 4.0 04:31:20 12° SSW 04:35:14 43° W 04:39:31 10° N visible
